This is the latest recevied weather packets stored in our database for station/object KF6RAL-6. If no packets are shown the sender has not sent any weather packets the latest 10 day(s).
| Time | Temp. | Humidity | Pressure | Rain* | Wind** | Luminosity | Snow |
|---|---|---|---|---|---|---|---|
| 1777804320 | 14.44° C | 42% | 1014.3 hPa | 0 mm | - | - | - |
| 1777803942 | 13.89° C | 38% | 1013.8 hPa | 0 mm | - | - | - |
| 1777803899 | 13.89° C | 38% | 1013.8 hPa | 0 mm | - | - | - |
| 1777803478 | 13.33° C | 42% | 1013.7 hPa | 0 mm | - | - | - |
| 1777803057 | 13.33° C | 47% | 1013.7 hPa | 0 mm | - | - | - |
| 1777802636 | 13.33° C | 48% | 1013.7 hPa | 0 mm | - | - | - |
| 1777802215 | 13.89° C | 46% | 1013.7 hPa | 0 mm | - | - | - |
| 1777801794 | 13.89° C | 48% | 1013.6 hPa | 0 mm | - | - | - |
| 1777801372 | 13.89° C | 48% | 1013.9 hPa | 0 mm | - | - | - |
| 1777800531 | 14.44° C | 43% | 1013.8 hPa | 0 mm | - | - | - |
| 1777800110 | 14.44° C | 38% | 1014.1 hPa | 0 mm | - | - | - |
| 1777799689 | 14.44° C | 43% | 1014 hPa | 0 mm | - | - | - |
| 1777799268 | 14.44° C | 44% | 1013.9 hPa | 0 mm | - | - | - |
| 1777798847 | 14.44° C | 44% | 1014 hPa | 0 mm | - | - | - |
| 1777798425 | 13.89° C | 44% | 1014 hPa | 0 mm | - | - | - |
| 1777798005 | 13.33° C | 47% | 1014.3 hPa | 0 mm | - | - | - |
| 1777797583 | 12.78° C | 51% | 1014.3 hPa | 0 mm | - | - | - |
| 1777797162 | 13.33° C | 56% | 1014.4 hPa | 0 mm | - | - | - |
| 1777796741 | 13.33° C | 55% | 1014.4 hPa | 0 mm | - | - | - |
| 1777796321 | 12.78° C | 55% | 1014.5 hPa | 0 mm | - | - | - |
| 1777795899 | 12.78° C | 54% | 1014.6 hPa | 0 mm | - | - | - |
| 1777795479 | 13.33° C | 58% | 1014.5 hPa | 0 mm | - | - | - |
| 1777795057 | 13.89° C | 55% | 1014.2 hPa | 0 mm | - | - | - |
| 1777794636 | 14.44° C | 55% | 1014.3 hPa | 0 mm | - | - | - |
| 1777794216 | 14.44° C | 52% | 1014.6 hPa | 0 mm | - | - | - |
* Rain latest hour (hover to see other rain measurements)
** Current wind speed in m/s (hover to see current wind gust speed)